Wind_Speed
13 12 10 8 8 9 8 7 7 9 7 6 7 8 10 9 9 10 10 9 10 11 11 12 12 13 13 12 12 11 10 10 9 8 7 6 6 6 6 6 6 5 5 5
15 12 11 12 11 12 11 7 7 9 8 7 7 8 9 8 9 11 11 10 10 10 11 12 12 13 14 14 13 12 11 10 10 10 8 7 7 7 6 6 6 7 6 7
16 13 14 13 13 13 11 9 8 9 9 8 6 8 11 11 10 11 11 10 9 10 11 11 12 13 13 13 13 12 12 11 10 10 10 9 9 8 8 8 7 8 8 8
18 16 16 15 14 13 11 10 11 10 9 7 8 12 15 13 9 9 11 11 11 10 11 11 12 13 14 14 14 13 13 12 11 11 11 10 10 9 9 7 7 7 8 8
20 20 19 17 15 15 13 13 12 11 10 9 8 12 15 12 10 8 9 10 11 12 11 12 13 14 14 14 14 13 13 12 12 12 12 10 9 9 8 7 7 7 7 8
22 21 20 18 17 17 15 13 11 9 9 10 9 9 15 13 10 9 10 11 11 12 12 12 13 14 15 15 15 14 14 13 13 12 11 10 9 8 8 8 8 9 9 9
23 22 22 20 19 18 16 13 11 9 9 10 9 10 14 13 13 13 12 12 12 12 12 12 13 14 15 15 15 15 14 13 13 12 11 10 9 9 9 9 9 9 9 10
23 23 22 21 20 19 17 15 12 9 10 11 10 10 14 15 15 14 12 12 13 12 12 12 14 14 15 15 15 15 14 13 13 12 11 10 10 10 9 10 10 10 11 12
19 20 21 21 20 20 18 17 14 13 13 13 13 12 15 15 15 14 12 12 12 13 12 13 14 15 16 16 16 15 15 14 14 13 12 11 10 10 10 10 11 12 12 13
21 19 20 22 22 22 20 17 16 18 16 13 13 13 15 15 14 14 13 13 13 13 12 13 14 15 15 14 16 16 15 14 14 13 11 11 11 11 12 12 12 12 13 13
26 23 20 24 25 22 22 22 20 18 17 13 13 15 14 14 14 15 15 14 15 14 14 13 14 14 15 16 16 16 15 14 14 13 13 12 12 13 13 13 13 13 13 13
30 26 24 24 24 21 22 23 22 22 20 18 15 17 15 13 14 16 16 16 16 14 13 14 15 15 15 16 16 16 15 15 14 14 14 14 14 14 14 14 14 14 14 14
32 31 28 24 24 24 23 23 22 21 19 18 15 17 18 17 16 18 18 18 17 14 15 15 15 15 15 16 16 16 16 15 15 15 15 15 15 14 14 14 14 14 14 15
33 33 31 25 22 21 22 23 23 22 21 20 18 20 21 18 18 20 19 18 17 16 16 15 15 15 15 16 16 16 16 16 15 15 16 16 15 15 15 15 15 15 16 16
32 33 32 29 24 19 20 21 22 24 23 22 19 20 22 21 20 21 20 19 18 17 17 16 15 14 15 16 17 17 17 16 16 16 17 17 16 16 16 16 16 16 16 16
34 34 33 32 29 24 21 21 21 22 24 24 21 20 20 22 22 22 22 21 19 18 17 15 14 15 16 16 17 18 17 17 17 17 18 17 16 16 16 16 17 17 17 17
33 33 33 32 30 28 26 22 21 21 22 23 23 24 23 25 25 25 24 23 20 18 16 16 16 16 17 17 17 17 17 17 17 18 17 17 17 17 17 18 18 18 19 19
32 33 32 31 30 30 27 24 23 23 23 24 25 25 26 28 27 26 25 23 20 19 18 18 18 18 18 18 18 18 17 17 18 18 18 18 19 19 19 19 19 19 19 19
32 32 32 31 29 27 25 25 25 25 26 26 26 27 28 28 26 26 25 23 21 20 20 19 19 19 19 19 19 19 18 18 18 19 19 19 20 20 20 20 20 20 20 20
33 33 33 32 29 25 25 26 26 26 28 28 29 28 28 27 26 25 24 23 22 21 21 21 20 20 20 20 20 20 19 20 20 20 20 21 21 21 21 21 21 21 21 22
34 34 35 33 31 27 25 26 27 28 30 30 29 28 28 28 27 26 24 23 22 22 22 22 22 21 21 21 21 21 21 21 22 21 21 22 22 21 21 22 22 23 22 23
34 34 35 34 32 30 29 27 29 29 29 29 29 29 29 28 27 27 25 24 24 23 23 23 23 23 23 22 22 22 23 22 22 22 22 22 22 22 22 22 23 23 23 23
34 34 33 34 35 35 33 33 33 30 29 29 30 29 29 29 28 27 26 25 25 25 25 25 24 24 24 23 23 23 23 23 23 24 24 23 23 23 23 23 23 24 24 24
34 35 36 36 36 38 37 36 34 32 32 30 30 30 30 29 28 27 26 26 26 25 26 26 25 25 25 25 25 24 24 24 24 25 25 25 24 24 24 23 24 24 24 24
37 38 38 38 38 38 38 37 34 32 32 32 32 31 30 30 29 28 27 27 27 27 27 27 26 26 26 26 26 26 25 25 25 25 26 25 24 24 24 24 24 24 24 25
38 38 39 39 38 38 37 36 35 34 33 33 33 32 32 31 31 29 29 29 28 28 28 28 28 27 27 27 27 27 26 26 27 27 27 26 25 25 24 24 24 24 25 25
Wind_Direction
214 212 201 194 203 201 203 224 246 253 262 276 279 289 303 317 327 326 331 340 341 345 352 354 354 357 1 360 358 356 354 353 351 346 334 316 309 309 299 287 276 271 271 277
218 219 212 203 206 209 206 213 242 258 271 270 266 276 285 296 314 320 326 328 333 337 347 353 352 353 355 354 354 354 349 350 347 343 335 324 313 304 299 292 278 268 267 272
221 218 220 213 215 218 214 209 234 249 263 278 274 276 282 287 294 314 320 325 329 333 341 344 346 349 350 349 348 348 347 345 343 339 332 327 319 310 299 292 282 270 264 267
221 218 223 221 221 221 218 222 228 238 249 263 272 275 283 284 289 316 323 325 328 332 337 340 342 344 346 345 343 342 340 340 338 333 326 320 314 308 297 289 282 276 269 267
223 223 225 225 222 223 217 226 234 237 241 243 250 270 281 285 282 297 307 309 320 327 332 335 337 339 340 340 339 335 334 331 330 331 327 318 312 306 296 291 289 288 285 278
224 229 229 227 223 224 224 231 237 240 243 247 245 258 278 285 298 290 292 310 318 319 324 330 333 334 335 334 336 333 328 326 325 327 324 319 313 305 299 295 290 289 289 286
226 227 232 229 225 228 228 228 235 247 260 260 251 244 264 277 282 286 294 303 306 310 317 325 329 331 333 331 331 331 329 328 328 327 324 319 315 309 300 296 289 290 293 291
231 230 234 234 228 228 231 227 224 233 261 266 258 241 250 265 278 284 291 295 301 304 307 315 323 329 329 330 329 330 329 329 330 327 321 315 313 310 304 299 295 293 292 290
228 239 239 238 232 225 227 227 219 232 245 266 270 263 258 271 276 282 289 294 301 301 308 315 317 321 325 328 329 328 326 325 326 325 322 317 317 314 312 308 302 297 296 292
213 229 236 240 234 227 221 225 224 225 239 251 265 265 260 263 274 282 287 292 296 302 303 310 314 316 324 329 329 328 325 321 321 322 321 320 318 317 316 310 306 302 300 296
211 218 225 236 237 231 223 220 222 226 226 238 260 260 255 257 271 281 287 290 292 297 296 306 314 317 323 327 327 328 329 325 322 322 323 323 321 316 315 310 308 305 303 303
214 215 220 232 241 235 227 227 224 228 227 225 244 272 266 251 266 276 280 283 287 290 294 300 306 311 319 324 326 326 327 327 325 321 321 319 320 319 317 311 309 306 304 306
216 215 217 221 233 236 229 224 225 230 235 234 236 260 263 264 266 273 278 281 284 291 294 298 301 305 311 317 321 323 325 325 324 323 324 323 321 320 319 317 312 310 307 306
216 218 216 217 229 237 238 227 222 221 226 234 236 253 265 273 272 274 277 279 283 285 289 293 297 301 307 313 317 319 318 320 322 322 322 324 321 320 320 319 316 311 308 306
217 218 218 212 212 222 235 234 227 223 221 228 236 247 261 267 267 269 275 278 279 281 284 287 292 296 302 309 315 317 316 318 320 321 321 321 320 319 318 318 319 315 313 313
217 217 217 214 211 216 226 230 231 230 227 226 231 239 250 260 263 266 271 274 275 276 279 284 287 291 297 302 309 314 314 316 315 317 319 318 316 316 316 316 317 319 319 317
218 219 219 218 215 218 225 226 227 230 232 232 231 239 249 256 260 264 268 270 269 273 277 282 283 289 295 299 305 309 310 312 313 315 316 315 314 315 315 316 316 316 316 315
220 219 221 219 219 221 225 229 227 226 229 230 232 235 244 252 256 261 264 266 268 271 276 280 282 287 293 297 301 305 307 310 311 312 313 313 314 314 312 313 314 313 313 313
220 219 219 218 221 225 225 228 226 226 229 228 230 235 241 249 255 257 260 263 266 269 271 276 280 284 289 294 297 300 303 306 309 311 311 312 312 312 312 311 312 311 310 311
220 218 217 217 218 221 228 230 229 228 231 230 230 234 241 246 251 256 260 263 266 268 270 273 277 282 286 291 295 296 298 301 305 307 309 310 310 311 311 311 310 310 311 312
220 219 218 217 217 219 224 226 226 226 231 233 234 237 242 245 249 255 259 262 265 266 269 271 275 279 284 288 291 295 297 299 303 305 307 309 310 311 313 314 313 313 312 312
223 222 221 219 217 221 225 227 225 227 231 235 237 240 243 248 250 254 257 259 263 265 268 271 274 277 281 285 288 291 295 297 300 303 304 306 306 308 310 312 312 313 313 312
221 220 220 221 220 222 226 231 234 234 235 237 239 242 246 249 252 253 255 258 262 265 268 271 274 276 279 282 285 288 291 293 297 299 301 302 304 305 308 310 312 312 312 312
217 217 218 220 222 224 226 230 233 235 238 239 241 243 246 249 252 253 255 257 260 263 267 270 272 274 277 280 283 285 287 289 292 295 298 300 301 302 305 307 310 311 312 312
214 216 219 222 226 228 229 231 234 235 237 239 241 244 247 249 251 253 256 258 259 262 266 270 271 273 275 277 281 282 285 288 291 293 296 298 299 301 302 305 308 309 309 310
218 218 219 222 225 227 230 232 233 237 238 240 243 246 248 250 252 254 256 258 259 262 266 269 270 272 273 276 279 281 283 286 288 291 294 296 297 299 302 305 306 307 307 308
Height
5913 5916 5918 5921 5924 5925 5928 5930 5931 5930 5929 5929 5930 5929 5927 5925 5923 5922 5921 5920 5920 5918 5917 5916 5915 5913 5912 5910 5909 5907 5906 5905 5904 5903 5903 5902 5902 5902 5902 5901 5901 5902 5902 5902
5912 5914 5917 5919 5922 5924 5926 5929 5930 5929 5929 5929 5929 5928 5927 5925 5923 5922 5921 5920 5920 5918 5917 5916 5915 5913 5912 5910 5909 5907 5906 5905 5904 5903 5902 5901 5901 5901 5900 5900 5900 5901 5901 5901
5909 5914 5915 5917 5920 5922 5924 5927 5929 5929 5929 5928 5929 5928 5926 5925 5923 5922 5920 5919 5919 5917 5917 5916 5915 5913 5912 5910 5909 5907 5905 5904 5903 5902 5901 5901 5900 5899 5899 5899 5898 5899 5899 5900
5906 5910 5912 5915 5917 5920 5922 5925 5926 5927 5928 5928 5929 5928 5925 5923 5921 5920 5920 5918 5918 5916 5916 5915 5914 5913 5911 5910 5908 5906 5905 5904 5902 5902 5900 5900 5899 5898 5898 5897 5897 5897 5897 5898
5903 5906 5909 5912 5915 5917 5920 5922 5923 5924 5925 5926 5927 5926 5924 5921 5919 5919 5919 5919 5917 5915 5915 5914 5913 5912 5910 5909 5907 5906 5904 5903 5901 5900 5899 5898 5897 5897 5896 5896 5896 5896 5896 5897
5900 5903 5906 5909 5912 5914 5917 5919 5920 5921 5923 5924 5925 5926 5923 5919 5919 5918 5918 5918 5917 5916 5915 5914 5913 5911 5910 5908 5906 5904 5903 5901 5900 5898 5897 5896 5896 5895 5895 5895 5895 5895 5895 5895
5896 5899 5902 5905 5908 5911 5914 5917 5919 5920 5921 5922 5923 5924 5923 5920 5919 5918 5917 5917 5917 5915 5914 5913 5912 5910 5909 5907 5905 5903 5901 5900 5898 5897 5896 5895 5894 5894 5894 5894 5894 5894 5894 5894
5892 5895 5898 5901 5905 5908 5911 5914 5917 5920 5921 5919 5920 5921 5921 5919 5919 5918 5917 5916 5915 5914 5912 5911 5911 5909 5908 5906 5904 5902 5900 5898 5897 5896 5895 5894 5893 5893 5892 5892 5892 5892 5892 5892
5890 5893 5896 5898 5901 5905 5908 5911 5915 5918 5919 5920 5919 5919 5916 5916 5917 5916 5916 5915 5914 5913 5912 5910 5909 5907 5907 5905 5903 5901 5899 5898 5896 5895 5893 5892 5891 5891 5890 5890 5890 5889 5889 5889
5886 5890 5892 5894 5897 5900 5905 5908 5911 5913 5915 5917 5917 5917 5914 5912 5914 5914 5914 5913 5912 5911 5911 5910 5908 5906 5905 5903 5902 5900 5898 5897 5895 5893 5892 5891 5890 5889 5888 5888 5887 5887 5886 5886
5880 5885 5889 5891 5892 5897 5900 5904 5907 5910 5912 5915 5915 5915 5909 5910 5912 5912 5911 5911 5910 5909 5908 5907 5907 5905 5904 5902 5901 5899 5897 5896 5894 5892 5891 5889 5888 5887 5886 5885 5885 5884 5884 5883
5874 5879 5883 5887 5889 5892 5896 5899 5903 5906 5908 5910 5912 5913 5906 5907 5909 5909 5909 5909 5908 5906 5905 5905 5905 5904 5903 5901 5900 5898 5896 5895 5893 5891 5890 5888 5887 5886 5885 5883 5882 5882 5881 5880
5868 5873 5878 5882 5887 5888 5890 5894 5898 5902 5905 5907 5910 5910 5905 5904 5906 5906 5906 5905 5904 5903 5904 5904 5903 5902 5901 5900 5898 5897 5895 5893 5892 5890 5888 5887 5885 5884 5883 5881 5880 5879 5878 5878
5862 5866 5872 5879 5882 5884 5886 5889 5893 5898 5901 5904 5906 5905 5902 5901 5902 5902 5903 5903 5902 5902 5902 5901 5901 5900 5899 5898 5896 5895 5893 5891 5890 5888 5887 5885 5884 5882 5881 5880 5878 5877 5876 5875
5855 5860 5865 5871 5875 5879 5882 5885 5888 5892 5896 5899 5901 5901 5899 5899 5899 5899 5899 5900 5900 5900 5899 5899 5898 5898 5897 5896 5894 5892 5891 5889 5888 5886 5885 5883 5882 5880 5879 5878 5876 5875 5873 5871
5848 5854 5859 5864 5869 5873 5877 5881 5884 5887 5891 5893 5896 5896 5894 5893 5895 5895 5896 5896 5896 5896 5896 5896 5896 5895 5894 5893 5892 5890 5889 5887 5886 5884 5883 5881 5880 5878 5877 5875 5874 5872 5870 5869
5843 5848 5854 5859 5864 5868 5872 5876 5880 5883 5886 5888 5890 5891 5890 5890 5891 5892 5892 5892 5893 5892 5892 5893 5893 5892 5892 5891 5889 5888 5887 5885 5884 5882 5881 5879 5877 5876 5874 5873 5871 5869 5868 5866
5838 5843 5848 5853 5858 5861 5868 5872 5874 5877 5880 5882 5884 5885 5886 5886 5887 5887 5888 5888 5889 5889 5890 5890 5889 5889 5889 5888 5887 5886 5884 5883 5882 5880 5878 5876 5875 5873 5872 5870 5868 5866 5864 5863
5832 5837 5842 5847 5851 5856 5862 5865 5868 5871 5873 5876 5878 5879 5880 5880 5882 5882 5883 5884 5885 5886 5886 5886 5886 5886 5885 5885 5884 5882 5881 5880 5879 5877 5875 5874 5872 5870 5868 5867 5865 5863 5861 5859
5825 5831 5837 5841 5846 5851 5856 5858 5861 5865 5866 5868 5871 5873 5875 5876 5877 5878 5879 5880 5881 5881 5881 5882 5882 5882 5882 5881 5880 5879 5878 5877 5875 5874 5872 5870 5869 5867 5865 5863 5861 5859 5857 5855
5819 5824 5830 5835 5840 5845 5848 5851 5855 5859 5859 5861 5864 5867 5869 5870 5872 5873 5874 5874 5876 5876 5877 5877 5877 5877 5877 5877 5876 5875 5874 5873 5871 5870 5868 5866 5865 5863 5861 5859 5857 5854 5852 5850
5814 5819 5824 5829 5834 5840 5840 5843 5846 5849 5852 5856 5858 5861 5863 5864 5865 5867 5869 5870 5871 5871 5872 5872 5872 5873 5872 5872 5871 5870 5869 5868 5867 5865 5864 5862 5861 5859 5857 5855 5852 5850 5848 5845
5807 5813 5818 5823 5827 5830 5833 5836 5839 5843 5847 5849 5852 5855 5857 5858 5860 5862 5863 5864 5865 5866 5866 5867 5867 5867 5867 5867 5866 5865 5865 5863 5862 5861 5859 5858 5856 5854 5852 5850 5848 5845 5843 5840
5800 5805 5810 5814 5817 5821 5825 5829 5833 5836 5841 5844 5846 5848 5851 5852 5854 5856 5857 5858 5859 5860 5861 5861 5861 5862 5862 5861 5861 5860 5859 5858 5857 5856 5854 5853 5851 5849 5847 5845 5843 5840 5838 5835
5790 5796 5801 5806 5810 5814 5818 5822 5826 5829 5833 5836 5839 5841 5844 5846 5848 5849 5851 5852 5853 5854 5855 5855 5855 5856 5856 5855 5855 5855 5854 5853 5852 5850 5849 5847 5846 5844 5842 5840 5837 5835 5833 5830
5784 5789 5794 5798 5802 5806 5810 5814 5819 5822 5826 5829 5832 5835 5837 5839 5841 5843 5844 5845 5847 5848 5848 5849 5849 5849 5849 5849 5849 5849 5848 5847 5846 5845 5843 5842 5840 5838 5836 5834 5832 5830 5828 5825